Simultaneous Nadir Overpasses (SNOs) Predictions

Prediction of SNOs between GOES-15 and TERRA Satellite Orbit:

Table of predicted SNOs for the next 14.0 days since TLE Epoch: 3/11/2017
Index Date Time (GOES-15) GOES-15 Lat,Lon TERRA Lat,Lon Distance(km) Time Diff (sec)
1 03/12/2017 07:28:05 -0.02,-134.77 -0.02,-134.79 1.96 80
2 03/14/2017 07:18:34 -0.02,-134.69 0.61,-131.83 325.56 80
3 03/14/2017 19:37:09 0.02,-134.68 0.52,-136.98 262.09 80
4 03/16/2017 19:27:38 0.02,-134.59 -0.12,-134.03 64.85 80
5 03/18/2017 19:15:26 0.02,-134.50 -0.71,-131.06 391.06 80
6 03/19/2017 07:34:10 -0.02,-134.46 -0.40,-136.25 203.16 80
7 03/21/2017 07:24:38 -0.02,-134.36 0.20,-133.28 122.36 80
8 03/21/2017 19:43:14 0.01,-134.35 0.87,-138.45 465.62 80
9 03/23/2017 07:12:26 -0.02,-134.26 0.81,-130.32 447.34 80
10 03/23/2017 19:31:02 0.01,-134.24 0.26,-135.48 140.82 80




NCC Satellite Simultaneous Nadir Overpasses (SNOs) Prediction Service
